This is the latest recevied weather packets stored in our database for station/object WB5CFT. If no packets are shown the sender has not sent any weather packets the latest 10 day(s).
| Time | Temp. | Humidity | Pressure | Rain* | Wind** | Luminosity | Snow |
|---|---|---|---|---|---|---|---|
| 1777747329 | 16.67° C | 50% | 1025.2 hPa | 0 mm | - | 626 W/m² | - |
| 1777747026 | 16.11° C | 52% | 1025.4 hPa | 0 mm | - | 455 W/m² | - |
| 1777746722 | 16.67° C | 50% | 1025.3 hPa | 0 mm | - | 791 W/m² | - |
| 1777746418 | 15.56° C | 52% | 1025.8 hPa | 0 mm | - | 644 W/m² | - |
| 1777746113 | 16.11° C | 53% | 1025.5 hPa | 0 mm | - | 715 W/m² | - |
| 1777745811 | 15.56° C | 54% | 1025.5 hPa | 0 mm | - | 588 W/m² | - |
| 1777745510 | 16.11° C | 54% | 1025.5 hPa | 0 mm | - | 801 W/m² | - |
| 1777745206 | 16.11° C | 52% | 1025.5 hPa | 0 mm | - | 613 W/m² | - |
| 1777744904 | 15.56° C | 56% | 1025.8 hPa | 0 mm | - | 890 W/m² | - |
| 1777744603 | 16.11° C | 54% | 1025.9 hPa | 0 mm | - | 869 W/m² | - |
| 1777744298 | 15.56° C | 56% | 1025.7 hPa | 0 mm | - | 809 W/m² | - |
| 1777743996 | 16.67° C | 54% | 1026 hPa | 0 mm | - | 677 W/m² | - |
| 1777743692 | 15.56° C | 55% | 1025.9 hPa | 0 mm | - | 673 W/m² | - |
| 1777743390 | 15.56° C | 55% | 1025.9 hPa | 0 mm | - | 808 W/m² | - |
| 1777743088 | 15° C | 55% | 1026 hPa | 0 mm | - | 467 W/m² | - |
| 1777742785 | 15° C | 56% | 1026.1 hPa | 0 mm | - | 412 W/m² | - |
| 1777742481 | 15.56° C | 57% | 1026 hPa | 0 mm | - | 613 W/m² | - |
| 1777742176 | 15° C | 56% | 1026.2 hPa | 0 mm | - | 540 W/m² | - |
| 1777741874 | 14.44° C | 59% | 1026.2 hPa | 0 mm | - | 456 W/m² | - |
| 1777741571 | 15.56° C | 54% | 1026.3 hPa | 0 mm | - | 273 W/m² | - |
| 1777741268 | 15.56° C | 57% | 1026.1 hPa | 0 mm | - | 498 W/m² | - |
| 1777740964 | 15° C | 60% | 1026.2 hPa | 0 mm | - | 298 W/m² | - |
| 1777740661 | 15° C | 60% | 1026.2 hPa | 0 mm | - | 331 W/m² | - |
| 1777740357 | 15.56° C | 60% | 1026.2 hPa | 0 mm | - | 348 W/m² | - |
| 1777740054 | 15° C | 61% | 1026.2 hPa | 0 mm | - | 452 W/m² | - |
* Rain latest hour (hover to see other rain measurements)
** Current wind speed in m/s (hover to see current wind gust speed)